NOAA 16 DEB, 41084

Orbit data source: Space-Track

NOAA 16 DEB, 41084 is space debris in SSO originally from a launch on Thu, 21 Sep 2000 UTC launched from the Air Force Western Test Range (AFWTR). Debris objects in space refer to the collection of defunct objects orbiting the Earth. Examples of debris include non-operational satellites, rocket bodies, and fragments generated from explosions, collisions, or faulty payload assembly.

Loading next visibility...
Identifier
41084, 2000-055AT
Orbit
SSO
Country
Flag of USUS
Related business
Manufacturer
Unknown
Mission
Spacecraft
Bus & Motor
Unknown
Mass
Unknown
Launch date (UTC)
2000-09-21 (25 years ago)
Launch vehicle
Unknown
Launch site
Air Force Western Test Range (AFWTR)
Object type
Payload
Rocket body
Debris
Shape & HBR
Unknown shape, 0.1 m
Radar Cross Section
Small (<0.1 m²)

Expand to show TLE details & history
Last TLE update: 16 hours ago

TLE from 16 hours ago
0 NOAA 16 DEB
1 41084U 00055AT  25349.76760655  .00001195  00000-0  54786-3 0  9991
2 41084  98.7036  73.5077 0015699  37.1211 323.1050 14.23126895520075
Epoch: 2025-12-15T18:25Z
TLE epoch observation values (Epoch: 2025-12-15T18:25:21.205Z)
Latitude
-0.00003°
Longitude
72.50791°
Altitude
808.69 km
Speed
7.454 km/s
True Right ascension
04h 54m 01s
True Declination
0° 00' 00"
Sunlit
Object was in full shadow at epoch
Visualization orbit readout
Latitude
Unknown
Longitude
Unknown
Altitude
Unknown
Speed
Unknown
Apparent Right ascension
Unknown
Apparent Declination
Unknown
Sunlit
N/A
Visualization observer readout
Local Sidereal Time
09:29:38
Azimuth
Unknown
Elevation
Unknown
Doppler factor
Unknown
Orbital elements
Apogee altitude
823.239 km
Perigee altitude
800.664 km
Semi-major axis
7,190.088 km
Eccentricity
0.00157
Inclination
98.7036°
RAAN
73.5077°
Arg. of periapsis
37.1211°
True anomaly
322.99683°
Mean anomaly
323.105°
Eccentric anomaly
323.05093°
Mean motion
3.55993 °/min
Orbital period
101.13 mins
BSTAR
0.00054786
Loading maneuver chart data...
Computing Atmospheric mass density...
Loading historical data...
Loading historical data...
Loading historical data...
Loading historical data...
Loading historical data...
Loading historical data...
Loading historical data...

Documentation

Showing up to 5 results
|